Harlan, IA

4:11 PM CST on December 12, 2019 (GMT -0600)
Harlan Municipal

Weather History for KHNR - October, 2019

Change the Weather History Date:

Saturday, October 12, 2019

  Actual Average Record
Temperature  
Mean Temperature 42 °F -  
Max Temperature 57 °F 64 °F 90 °F (1975)
Min Temperature 26 °F 41 °F 25 °F (1980)
Degree Days  
Heating Degree Days 24    
Moisture  
Dew Point 24 °F    
Average Humidity 60    
Maximum Humidity 93    
Minimum Humidity 21    
Precipitation  
Precipitation 0.00 in - - ()
Sea Level Pressure  
Sea Level Pressure 29.91 in    
Wind  
Wind Speed 10 mph ()    
Max Wind Speed 29 mph    
Max Gust Speed 37 mph    
Visibility 10.0 miles    
Events      
Averages and records for this station are not official NWS values.
T = Trace of Precipitation, MM = Missing Value Source: Averaged Metar Reports

Daily Weather History Graph

Daily Weather History Graph

Search for Another Location

Airport or City:

Astronomy

Oct. 12, 2019 Rise Set
Actual Time 7:29 AM CDT 6:45 PM CDT
Civil Twilight 7:01 AM CDT 7:13 PM CDT
Nautical Twilight 6:29 AM CDT 7:45 PM CDT
Astronomical Twilight 5:57 AM CDT 8:17 PM CDT
Moon 6:43 PM CDT 6:05 AM CDT
Length of Visible Light 12h 11m
Length of Day
11h 15m
Waxing Gibbous, 99% of the Moon is Illuminated
Oct 12
Waxing Gibbous
Oct 13
Full
Oct 21
Last Quarter
Oct 27
New
Nov 4
First Quarter

Hourly Weather History & Observations

Time (CDT) Temp. Windchill Dew Point Humidity Pressure Visibility Wind Dir Wind Speed Gust Speed Precip Events Conditions
12:15 AM 28.4 °F 21.2 °F 23.0 °F 80% 30.07 in 10.0 mi SW 6.9 mph - N/A   Clear
12:35 AM 28.4 °F 22.2 °F 23.0 °F 80% 30.06 in 10.0 mi WSW 5.8 mph - N/A   Clear
12:55 AM 28.4 °F 21.2 °F 23.0 °F 80% 30.06 in 10.0 mi WSW 6.9 mph - N/A   Clear
1:15 AM 28.4 °F 22.2 °F 23.0 °F 80% 30.05 in 10.0 mi SW 5.8 mph - N/A   Clear
1:35 AM 28.4 °F 22.2 °F 23.0 °F 80% 30.05 in 10.0 mi SW 5.8 mph - N/A   Clear
1:55 AM 28.4 °F 22.2 °F 23.0 °F 80% 30.04 in 10.0 mi SSW 5.8 mph - N/A   Clear
2:15 AM 26.6 °F 19.1 °F 24.8 °F 93% 30.04 in 10.0 mi SSW 6.9 mph - N/A   Clear
2:35 AM 26.6 °F 20.0 °F 24.8 °F 93% 30.03 in 10.0 mi SSW 5.8 mph - N/A   Clear
2:55 AM 26.6 °F 18.2 °F 24.8 °F 93% 30.03 in 10.0 mi SSW 8.1 mph - N/A   Clear
3:15 AM 26.6 °F 18.2 °F 24.8 °F 93% 30.02 in 10.0 mi South 8.1 mph - N/A   Clear
3:35 AM 26.6 °F 20.0 °F 24.8 °F 93% 30.01 in 10.0 mi SSW 5.8 mph - N/A   Clear
3:55 AM 28.4 °F 20.4 °F 24.8 °F 86% 30.01 in 10.0 mi SW 8.1 mph - N/A   Clear
4:15 AM 28.4 °F 19.7 °F 24.8 °F 86% 30.00 in 10.0 mi SW 9.2 mph - N/A   Clear
4:35 AM 28.4 °F 19.1 °F 24.8 °F 86% 29.99 in 10.0 mi SW 10.4 mph - N/A   Clear
4:55 AM 28.4 °F 19.7 °F 24.8 °F 86% 29.99 in 10.0 mi SW 9.2 mph - N/A   Clear
5:15 AM 28.4 °F 19.7 °F 24.8 °F 86% 29.99 in 10.0 mi SW 9.2 mph - N/A   Clear
5:35 AM 28.4 °F 20.4 °F 24.8 °F 86% 29.99 in 10.0 mi SW 8.1 mph - N/A   Clear
5:55 AM 28.4 °F 20.4 °F 24.8 °F 86% 29.99 in 10.0 mi SSW 8.1 mph - N/A   Clear
6:15 AM 26.6 °F 18.2 °F 24.8 °F 93% 29.98 in 10.0 mi SSW 8.1 mph - N/A   Clear
6:35 AM 26.6 °F 20.0 °F 24.8 °F 93% 29.98 in 10.0 mi SSW 5.8 mph - N/A   Clear
6:55 AM 26.6 °F 18.2 °F 24.8 °F 93% 29.99 in 10.0 mi SW 8.1 mph - N/A   Clear
7:15 AM 28.4 °F 19.1 °F 24.8 °F 86% 29.97 in 10.0 mi SW 10.4 mph - N/A   Clear
7:35 AM 28.4 °F 19.7 °F 24.8 °F 86% 29.96 in 10.0 mi SW 9.2 mph 16.1 mph N/A   Clear
7:55 AM 28.4 °F 20.4 °F 26.6 °F 93% 29.96 in 10.0 mi SW 8.1 mph - N/A   Clear
8:15 AM 30.2 °F 22.6 °F 26.6 °F 86% 29.96 in 10.0 mi SW 8.1 mph - N/A   Clear
8:35 AM 32.0 °F 23.6 °F 26.6 °F 80% 29.95 in 10.0 mi SSW 10.4 mph - N/A   Clear
8:55 AM 33.8 °F 25.8 °F 26.6 °F 75% 29.95 in 10.0 mi SW 10.4 mph - N/A   Clear
9:15 AM 35.6 °F 27.5 °F 26.6 °F 70% 29.94 in 10.0 mi SW 11.5 mph - N/A   Clear
9:35 AM 37.4 °F 29.3 °F 26.6 °F 65% 29.94 in 10.0 mi WSW 12.7 mph 20.7 mph N/A   Clear
9:55 AM 39.2 °F 30.5 °F 26.6 °F 61% 29.93 in 10.0 mi WSW 16.1 mph - N/A   Clear
10:15 AM 41.0 °F 32.8 °F 26.6 °F 57% 29.91 in 10.0 mi WSW 16.1 mph 25.3 mph N/A   Clear
10:35 AM 42.8 °F 34.8 °F 26.6 °F 53% 29.90 in 10.0 mi West 17.3 mph 27.6 mph N/A   Clear
10:55 AM 44.6 °F 35.7 °F 24.8 °F 46% 29.90 in 10.0 mi West 24.2 mph 32.2 mph N/A   Clear
11:15 AM 46.4 °F 39.0 °F 24.8 °F 43% 29.90 in 10.0 mi West 19.6 mph 29.9 mph N/A   Clear
11:35 AM 48.2 °F - 23.0 °F 37% 29.89 in 10.0 mi West 23.0 mph 28.8 mph N/A   Clear
11:55 AM 50.0 °F - 23.0 °F 35% 29.87 in 10.0 mi WSW 27.6 mph 33.4 mph N/A   Clear
12:15 PM 50.0 °F - 21.2 °F 32% 29.87 in 10.0 mi West 21.9 mph 36.8 mph N/A   Clear
12:35 PM 50.0 °F - 23.0 °F 35% 29.87 in 10.0 mi WSW 24.2 mph 36.8 mph N/A   Clear
12:55 PM 51.8 °F - 21.2 °F 30% 29.86 in 10.0 mi West 27.6 mph - N/A   Clear
1:15 PM 53.6 °F - 21.2 °F 28% 29.85 in 10.0 mi WSW 25.3 mph 36.8 mph N/A   Clear
1:35 PM 53.6 °F - 21.2 °F 28% 29.85 in 10.0 mi West 28.8 mph 36.8 mph N/A   Clear
1:55 PM 53.6 °F - 19.4 °F 26% 29.84 in 10.0 mi West 24.2 mph 35.7 mph N/A   Clear
2:15 PM 55.4 °F - 19.4 °F 25% 29.83 in 10.0 mi WSW 25.3 mph 34.5 mph N/A   Clear
2:35 PM 55.4 °F - 21.2 °F 26% 29.83 in 10.0 mi West 23.0 mph 31.1 mph N/A   Clear
2:55 PM 55.4 °F - 21.2 °F 26% 29.82 in 10.0 mi West 19.6 mph 35.7 mph N/A   Clear
3:15 PM 55.4 °F - 21.2 °F 26% 29.80 in 10.0 mi WSW 27.6 mph 34.5 mph N/A   Clear
3:35 PM 55.4 °F - 19.4 °F 25% 29.80 in 10.0 mi West 27.6 mph 34.5 mph N/A   Clear
3:55 PM 55.4 °F - 19.4 °F 25% 29.80 in 10.0 mi WSW 23.0 mph 35.7 mph N/A   Clear
4:15 PM 57.2 °F - 19.4 °F 23% 29.79 in 10.0 mi WSW 24.2 mph 31.1 mph N/A   Clear
4:35 PM 57.2 °F - 17.6 °F 21% 29.80 in 10.0 mi West 23.0 mph 31.1 mph N/A   Clear
4:55 PM 55.4 °F - 17.6 °F 23% 29.80 in 10.0 mi West 24.2 mph 32.2 mph N/A   Clear
5:15 PM 55.4 °F - 15.8 °F 21% 29.80 in 10.0 mi West 24.2 mph 34.5 mph N/A   Clear
5:35 PM 55.4 °F - 15.8 °F 21% 29.81 in 10.0 mi West 23.0 mph 29.9 mph N/A   Clear
5:55 PM 55.4 °F - 17.6 °F 23% 29.81 in 10.0 mi West 19.6 mph 27.6 mph N/A   Clear
6:15 PM 53.6 °F - 17.6 °F 24% 29.82 in 10.0 mi West 13.8 mph 21.9 mph N/A   Clear
6:35 PM 51.8 °F - 19.4 °F 28% 29.82 in 10.0 mi West 11.5 mph - N/A   Clear
6:55 PM 50.0 °F - 19.4 °F 30% 29.82 in 10.0 mi West 9.2 mph 17.3 mph N/A   Clear
7:15 PM 48.2 °F - 19.4 °F 32% 29.82 in 10.0 mi West 8.1 mph - N/A   Clear
7:35 PM 46.4 °F 43.5 °F 21.2 °F 37% 29.82 in 10.0 mi WSW 5.8 mph - N/A   Clear
7:55 PM 44.6 °F 40.2 °F 21.2 °F 39% 29.84 in 10.0 mi West 8.1 mph - N/A   Clear
8:15 PM 41.0 °F 35.8 °F 23.0 °F 49% 29.84 in 10.0 mi West 8.1 mph - N/A   Clear
8:35 PM 41.0 °F 35.8 °F 24.8 °F 53% 29.85 in 10.0 mi North 8.1 mph - N/A   Clear
8:55 PM 41.0 °F 37.1 °F 24.8 °F 53% 29.86 in 10.0 mi NNW 5.8 mph - N/A   Clear
9:15 PM 39.2 °F 35.0 °F 28.4 °F 65% 29.87 in 10.0 mi North 5.8 mph - N/A   Clear
9:35 PM 37.4 °F 32.8 °F 28.4 °F 70% 29.87 in 10.0 mi North 5.8 mph - N/A   Clear
9:55 PM 35.6 °F 30.7 °F 28.4 °F 75% 29.87 in 10.0 mi North 5.8 mph - N/A   Clear
10:15 PM 33.8 °F 29.6 °F 28.4 °F 81% 29.88 in 10.0 mi North 4.6 mph - N/A   Clear
10:35 PM 32.0 °F 27.5 °F 28.4 °F 87% 29.88 in 10.0 mi NNW 4.6 mph - N/A   Clear
10:55 PM 32.0 °F 27.5 °F 28.4 °F 87% 29.88 in 10.0 mi NNW 4.6 mph - N/A   Clear
11:15 PM 30.2 °F - 28.4 °F 93% 29.89 in 10.0 mi Calm Calm - N/A   Clear
11:35 PM 32.0 °F - 28.4 °F 87% 29.88 in 10.0 mi Calm Calm - N/A   Clear
11:55 PM 30.2 °F - 28.4 °F 93% 29.87 in 10.0 mi Calm Calm - N/A   Clear